EHI
34 31 30 29 28 29 30 27 21 15 12 10 6 4 2 1 0 0 0 0 0 0 0 0 0 0 0 0 0 0 0 0 0 0 0 0 0 0 0 0 0 0 0
33 31 30 28 26 28 29 27 21 14 10 8 5 4 3 1 0 0 0 0 0 0 0 0 0 0 0 0 0 0 0 0 0 0 0 0 0 0 0 0 0 0 0
34 33 30 27 26 28 29 27 20 12 8 6 5 4 2 1 0 0 0 0 0 0 0 0 0 0 0 0 0 0 0 0 0 0 0 0 0 0 0 0 0 0 0
34 33 31 28 27 29 29 26 19 11 7 6 5 4 2 1 0 0 0 0 0 0 0 0 0 0 0 0 0 0 0 0 0 0 0 0 0 0 0 0 0 0 0
30 31 30 28 27 27 27 24 18 11 7 6 4 3 1 0 0 0 0 0 0 0 0 0 0 0 0 0 0 0 0 0 0 0 0 0 0 0 0 0 0 0 0
27 27 28 27 26 24 24 22 17 11 7 5 3 1 0 0 0 0 0 0 0 0 0 0 0 0 0 0 0 0 0 0 0 0 0 0 0 0 0 0 0 0 0
26 27 28 29 27 24 22 21 17 12 8 6 3 1 1 0 0 0 0 0 0 0 0 0 0 0 0 0 0 0 0 0 0 0 0 0 0 0 0 0 0 0 0
27 28 31 31 29 26 24 22 17 12 10 9 7 4 2 0 0 0 0 0 0 0 0 0 0 0 0 0 0 0 0 0 0 0 0 0 0 0 0 0 0 0 0
26 27 30 32 31 28 27 24 18 13 11 11 10 6 3 1 1 1 0 0 0 0 0 0 0 0 0 0 0 0 0 0 0 0 0 0 0 0 0 0 0 0 0
22 25 29 31 31 30 29 25 18 14 14 14 12 8 4 3 2 2 1 0 0 0 0 0 0 0 0 0 0 0 0 0 0 0 0 0 0 0 0 0 0 0 0
18 21 25 29 30 30 29 25 20 18 17 15 12 9 6 4 4 4 2 1 0 0 0 0 0 0 0 0 0 0 0 0 0 0 0 0 0 0 0 0 0 0 0
13 15 20 25 27 29 29 28 25 21 18 14 10 8 6 6 6 5 3 2 1 1 0 0 0 0 0 0 0 0 0 0 0 0 0 0 0 0 0 0 0 0 0
7 9 15 21 25 27 27 27 25 21 16 12 9 8 7 7 7 6 5 4 3 2 1 0 0 0 0 0 0 0 0 0 0 0 0 0 0 0 0 0 0 0 0
6 9 14 18 21 22 23 22 19 17 13 10 9 8 9 8 7 7 7 6 4 2 1 0 0 0 0 0 0 0 0 0 0 0 0 0 0 0 0 0 0 0 0
10 11 13 14 15 16 17 17 15 13 12 9 8 7 8 8 7 8 8 7 5 3 1 0 0 0 0 0 0 0 0 0 0 0 0 0 0 0 0 0 0 0 0
12 12 11 10 11 12 13 13 12 12 12 11 9 8 7 7 7 8 9 8 7 6 4 2 1 0 0 0 0 0 0 0 0 0 0 0 0 0 0 0 0 0 0
8 8 8 7 8 9 10 10 10 10 11 10 11 11 10 10 9 8 8 8 9 8 6 4 2 1 1 0 0 0 0 0 0 0 0 0 0 0 0 0 0 0 0
4 5 6 6 6 8 8 8 8 8 8 6 7 10 11 10 9 8 7 7 7 6 5 4 3 2 1 0 0 0 0 0 0 0 0 0 0 0 0 0 0 0 0
6 6 6 6 5 5 7 7 6 6 4 3 4 6 8 8 7 7 6 5 4 3 3 3 2 1 1 0 0 0 0 0 0 0 0 0 0 0 0 0 0 0 0
7 6 5 4 2 2 4 5 4 3 2 2 3 4 5 5 5 4 4 3 1 1 1 1 1 0 0 0 0 0 0 0 0 0 0 0 0 0 0 0 0 0 0
4 3 2 1 0 0 1 1 1 1 1 1 1 2 2 2 1 1 1 1 0 0 0 0 0 0 0 0 0 0 0 0 0 0 0 0 0 0 0 0 0 0 0
1 0 0 0 0 0 0 0 0 0 0 0 0 0 0 0 0 0 0 0 0 0 0 0 0 0 0 0 0 0 0 0 0 0 0 0 0 0 0 0 0 0 0
0 0 0 0 0 0 0 0 0 0 0 0 0 0 0 0 0 0 0 0 0 0 0 0 0 0 0 0 0 0 0 0 0 0 0 0 0 0 0 0 0 0 0
0 0 0 0 0 0 0 0 0 0 0 0 0 0 0 0 0 0 0 0 0 0 0 0 0 0 0 0 0 0 0 0 0 0 0 0 0 0 0 0 0 0 0
0 0 0 0 0 0 0 0 0 0 0 0 0 0 0 0 0 0 0 0 0 0 0 0 0 0 0 0 0 0 0 0 0 0 0 0 0 0 0 0 0 0 0
0 0 0 0 0 0 0 0 0 0 0 0 0 0 0 0 0 0 0 0 0 0 0 0 0 0 0 0 0 0 0 0 0 0 0 0 0 0 0 0 0 0 0
Wind_Speed
7 8 10 10 9 10 10 10 9 8 7 6 6 6 5 4 3 3 5 5 5 5 4 3 3 3 3 2 2 2 3 2 1 3 3 3 2 1 0 1 1 1 2
8 9 9 10 10 10 10 10 10 8 7 6 5 4 5 4 4 3 4 5 5 5 5 4 3 3 3 3 3 3 2 2 2 2 3 3 4 4 2 1 1 1 1
13 12 12 11 10 10 11 11 10 9 8 7 5 5 4 3 2 3 3 4 5 5 5 5 4 3 3 2 2 3 3 2 2 1 3 3 2 2 3 2 1 0 1
11 11 11 11 11 11 10 10 10 9 8 8 8 9 6 5 5 4 4 4 5 5 5 5 5 4 3 3 2 3 3 3 2 2 1 1 3 3 0 3 3 2 0
12 12 13 12 11 11 10 10 9 9 8 8 9 8 5 4 3 4 5 4 3 4 5 5 5 5 3 3 3 3 3 3 2 1 1 2 2 2 3 0 3 3 2
11 10 10 9 8 8 9 10 10 9 8 8 8 8 8 6 6 5 5 4 3 3 4 5 5 5 4 4 3 3 4 3 3 2 2 2 2 1 2 2 1 2 3
10 10 10 10 10 10 10 10 11 9 9 9 8 8 8 8 9 7 7 5 4 3 5 5 5 4 4 4 4 3 3 3 3 2 2 1 1 2 2 2 1 1 2
11 12 12 12 12 12 12 11 12 10 10 9 8 7 8 6 6 7 6 7 5 5 6 6 6 6 6 5 4 3 3 3 2 2 2 1 1 1 2 3 3 1 2
12 12 12 12 12 12 12 12 12 10 10 9 8 7 7 7 7 7 6 5 5 5 7 7 7 6 6 5 5 3 3 3 3 2 2 1 1 0 1 2 3 4 1
10 11 11 12 11 11 10 10 10 10 10 9 8 8 7 7 6 6 6 6 6 6 7 7 8 7 6 6 5 3 3 4 3 3 2 2 1 1 1 1 2 3 4
9 9 10 10 10 9 9 10 10 9 9 9 8 7 7 6 6 6 7 6 6 7 8 9 8 8 7 6 6 5 5 5 4 4 4 4 3 2 1 1 1 2 3
8 9 10 9 9 10 10 10 10 10 10 9 8 8 7 6 7 7 7 6 7 7 8 8 8 8 8 7 7 7 6 6 6 6 5 5 4 4 3 2 2 2 3
5 6 6 8 9 10 9 9 10 10 9 8 9 8 8 8 8 8 7 6 7 7 7 8 8 8 8 8 8 8 7 7 7 7 6 6 5 5 4 4 4 3 3
5 5 5 5 6 7 7 8 8 8 8 8 8 8 9 9 8 7 6 6 7 7 7 8 8 8 7 7 7 7 7 7 7 7 7 7 7 7 7 5 6 5 4
4 5 5 5 5 5 5 6 6 6 6 6 6 7 7 6 5 5 6 6 6 8 7 7 6 6 6 6 6 6 7 7 7 6 6 7 9 11 9 6 6 6 5
5 5 4 4 5 5 4 4 4 4 4 4 3 3 3 3 3 3 4 4 5 5 6 6 6 6 6 7 10 7 6 6 7 7 6 7 8 10 13 14 12 10 8
7 7 5 5 4 4 5 5 5 6 7 5 3 3 3 3 2 2 3 4 4 4 4 5 5 5 6 8 9 11 6 6 6 7 6 6 6 7 6 8 11 12 14
9 8 7 7 6 5 6 6 6 7 7 6 4 3 3 3 2 2 3 4 3 4 4 3 3 3 4 5 7 7 5 4 5 5 5 5 5 4 4 5 6 7 8
10 9 9 8 9 8 8 9 8 7 7 5 4 3 3 3 2 2 1 1 2 2 2 2 2 2 1 2 3 3 2 2 4 3 3 3 3 4 4 3 5 7 7
10 10 10 11 11 9 8 11 9 9 7 5 4 4 4 4 4 3 2 1 2 2 3 2 2 2 2 3 1 1 1 1 2 2 2 1 2 4 4 3 5 7 8
10 10 11 11 8 7 9 11 9 8 5 5 5 5 5 4 4 3 3 3 4 4 4 5 4 4 3 3 3 2 1 1 2 2 2 2 5 7 7 6 6 9 9
10 10 11 10 8 7 9 10 8 5 5 6 7 6 6 5 6 5 4 5 5 5 4 4 4 3 3 4 4 3 2 0 1 2 3 3 7 8 9 7 8 11 9
9 8 10 10 8 7 8 9 5 5 6 7 6 5 5 5 5 5 5 4 4 4 3 3 3 2 2 3 6 6 5 3 1 2 5 7 9 9 7 8 11 9 4
8 8 9 10 8 7 7 6 5 6 7 7 6 5 5 5 4 3 3 3 2 2 2 2 2 2 2 3 4 3 3 4 3 3 5 8 8 6 6 7 6 3 3
6 7 8 8 7 6 7 6 6 7 8 7 6 5 5 4 4 3 3 2 2 3 3 2 2 2 2 3 4 3 3 3 3 3 3 3 3 4 4 4 4 4 3
6 7 7 7 6 6 6 5 5 6 6 6 5 4 3 3 3 4 5 9 8 10 9 7 5 3 3 5 7 7 7 6 5 2 2 3 3 4 4 4 5 4 4
Wind_Direction
174 167 166 169 166 161 163 160 159 157 144 139 142 142 147 153 148 152 150 142 135 124 114 111 97 100 100 100 86 69 49 26 37 61 24 359 359 9 5 109 111 144 182
166 175 174 174 176 168 166 161 163 161 156 155 153 148 147 157 158 153 153 151 141 136 127 122 120 116 103 79 67 69 67 19 44 104 88 30 358 349 355 353 124 123 123
176 179 180 183 177 174 173 171 169 166 164 157 136 123 107 102 110 146 165 166 150 142 133 136 129 121 118 114 97 87 92 61 13 78 133 136 197 303 330 331 356 114 121
175 178 182 182 182 183 175 169 170 166 165 157 151 152 155 164 183 176 173 173 162 152 146 144 136 127 129 134 125 100 102 103 49 5 34 131 154 144 334 331 337 334 267
179 182 184 184 183 179 175 172 170 169 168 166 162 160 162 168 166 158 161 171 171 165 160 153 142 136 138 140 125 112 104 108 112 75 41 49 54 84 127 279 323 334 312
182 184 181 175 177 179 177 173 170 176 175 171 167 168 172 169 161 165 170 178 178 177 177 163 155 151 149 153 149 134 125 122 115 106 96 107 105 109 125 147 267 293 298
181 179 177 177 178 180 182 178 176 180 179 175 175 178 179 174 174 174 177 178 179 188 193 173 166 162 166 168 158 143 140 141 138 141 135 134 151 163 147 134 153 327 310
185 183 184 182 184 183 182 181 182 184 182 181 182 180 177 175 177 178 177 186 189 193 187 180 178 175 172 173 164 155 167 162 165 162 152 147 156 153 158 153 137 64 340
188 186 185 185 186 184 183 183 183 184 185 185 179 183 182 177 180 182 182 189 195 194 187 183 180 179 176 175 167 171 185 177 188 189 182 188 207 149 151 151 149 144 150
188 185 185 187 187 186 183 181 181 184 185 186 186 191 192 189 186 185 192 195 197 193 180 182 181 181 180 176 171 176 186 181 195 193 189 203 213 198 144 142 148 149 157
184 185 187 185 183 181 180 184 185 185 186 189 192 194 194 195 192 194 200 196 193 187 184 183 182 183 186 183 180 189 189 194 206 206 202 219 215 211 213 178 158 161 155
181 183 184 179 178 181 183 187 187 189 191 191 192 197 197 196 198 203 203 193 191 188 185 181 183 190 192 189 189 198 200 200 209 216 211 223 219 218 221 210 210 205 190
170 169 171 179 183 185 186 189 190 192 191 188 193 198 200 200 206 209 202 194 191 188 186 182 188 195 194 195 200 202 204 206 211 213 213 220 211 220 222 218 219 222 217
160 159 158 170 175 178 178 186 193 192 189 190 194 201 205 205 206 205 199 195 190 188 190 191 192 194 194 197 204 207 211 214 217 217 216 217 210 215 217 220 222 221 224
129 141 151 159 158 163 173 181 185 182 184 186 194 204 205 202 200 200 200 199 199 198 193 190 193 195 198 207 206 209 214 217 225 229 226 225 222 220 216 217 217 215 222
112 110 112 129 139 141 143 139 139 145 143 156 180 181 158 162 179 200 204 201 207 203 189 193 194 201 214 215 210 205 217 215 220 229 237 241 237 236 233 233 226 213 215
100 94 92 98 107 115 118 119 123 115 112 114 117 118 128 154 182 204 215 212 208 195 184 192 195 207 223 222 216 214 214 221 225 226 231 245 247 241 243 248 247 239 233
92 90 88 87 83 84 91 92 90 96 102 101 98 112 121 141 154 179 218 216 203 187 180 183 193 206 228 228 230 229 225 231 237 235 230 235 251 257 252 256 261 258 252
83 78 76 80 78 74 77 81 77 81 87 86 80 83 101 108 112 113 125 190 174 162 160 163 187 206 256 258 249 228 220 245 259 263 254 242 251 277 272 263 270 274 273
80 79 76 76 74 71 79 81 75 74 73 73 77 71 80 88 87 89 98 84 102 120 115 110 103 115 92 53 60 167 161 267 286 296 291 257 268 293 294 265 264 272 276
84 82 80 75 70 70 80 80 74 69 67 68 66 61 66 74 73 65 54 61 68 72 78 78 70 71 68 55 65 106 128 268 298 306 299 297 311 303 299 281 255 260 272
85 82 82 74 62 61 76 76 65 56 58 64 63 57 53 60 70 73 59 61 74 74 72 75 62 46 40 41 43 57 71 31 299 293 295 298 310 306 300 287 272 275 278
92 86 87 81 65 56 69 74 58 52 56 56 54 53 56 55 59 72 74 67 69 79 74 73 70 47 29 26 30 33 28 17 339 297 304 309 307 307 300 291 291 292 277
96 93 89 84 72 61 63 65 55 55 59 54 44 42 51 50 49 58 72 80 84 90 84 80 76 43 26 13 2 0 359 358 349 330 317 315 313 310 301 305 309 301 281
96 93 93 91 83 71 63 59 60 62 58 50 42 40 44 47 43 39 42 57 60 108 112 98 93 76 34 342 352 4 350 335 323 330 337 343 342 339 331 324 316 312 313
100 95 93 92 84 75 66 53 54 63 62 49 39 37 36 38 43 50 47 48 61 68 75 80 84 66 40 9 12 10 2 354 355 23 351 332 326 320 317 315 313 310 307